Miscellaneous Local Product
Issued by NWS Hastings, NE

Home | Current Version | Previous Version | Graphics & Text | Print | Product List | Glossary On
Versions: 1 2 3 4 5 6 7 8 9 10 11 12 13 14 15 16 17 18 19 20 21 22 23 24 25 26 27 28 29 30 31 32 33 34 35 36 37 38 39 40 41 42 43 44 45 46 47 48 49 50
000
AXUS43 KGID 010702
MISGRI

GID CWA HOURLY WEATHER ROUNDUP
NATIONAL WEATHER SERVICE HASTINGS NE
200 AM CDT SAT AUG 01 2015

NOTE: "FAIR" INDICATES FEW OR NO CLOUDS BELOW 12,000 FEET WITH NO
SIGNIFICANT WEATHER AND/OR OBSTRUCTIONS TO VISIBILITY.

...SOUTH CENTRAL NEBRASKA...

CITY           SKY/WX    TMP DP  RH WIND       PRES   REMARKS
GRAND ISLAND   MOCLDY    68  63  84 NE8       30.11R
HASTINGS       PTCLDY    72  60  66 S3        30.09F
KEARNEY        CLEAR     68  59  73 S6        30.11S
ORD            CLEAR     64  62  93 N3        30.10F
YORK           CLEAR     63  59  88 N5        30.11S
AURORA         CLEAR     64  63  96 E3        30.11S
LEXINGTON      PTCLDY    67  62  83 W5        30.13S
HOLDREGE       PTCLDY    65  61  87 SE3       30.13S
HEBRON         PTCLDY    69  64  83 CALM      30.09S

...NEBRASKA PANHANDLE...

CITY           SKY/WX    TMP DP  RH WIND       PRES   REMARKS
CHADRON        CLEAR     65  54  67 NE3       30.10F
ALLIANCE       CLEAR     60  55  83 SE8       30.14F
SCOTTSBLUFF    CLEAR     65  56  72 E8        30.14F
SIDNEY         CLEAR     63  55  75 S7        30.19F

...WESTERN AND NORTH CENTRAL NEBRASKA...

CITY           SKY/WX    TMP DP  RH WIND       PRES   REMARKS
VALENTINE      PTCLDY    68  60  75 E5        30.12F
AINSWORTH      CLEAR     66  63  88 SE7       30.14F
ONEILL         MOCLDY    69  65  87 CALM      30.13F
BROKEN BOW     PTCLDY    66  59  78 VRB3      30.12F
IMPERIAL       CLEAR     71  58  63 SW6       30.14F
NORTH PLATTE   CLEAR     63  60  90 E7        30.12F
MCCOOK         PTCLDY    72  62  71 E8        30.13F

...EASTERN NEBRASKA...

CITY           SKY/WX    TMP DP  RH WIND       PRES   REMARKS
NORFOLK        CLEAR     61  59  93 SW3       30.09F
SO SIOUX CITY  CLEAR     69  64  84 S5        30.07F
TEKAMAH        CLEAR     66  64  93 N3        30.07F
COLUMBUS       CLEAR     59  54  82 NW3       30.11S
ALBION         MOCLDY    61  59  93 CALM      30.12R
OMAHA EPPLEY   PTCLDY    73  68  84 S5        30.07F
MILLARD        CLEAR     70  67  90 CALM      30.08R
LINCOLN        CLEAR     64  62  93 N7        30.09S
NEBRASKA CITY  CLEAR     67  66  95 SW5       30.07F
BEATRICE       CLEAR     68  65  90 CALM      30.09S
FALLS CITY     CLEAR     72  69  90 SW3       30.05F

...NORTHERN KANSAS...

CITY           SKY/WX    TMP DP  RH WIND       PRES   REMARKS
GOODLAND       CLEAR     71  59  65 SW12      30.19F
HILL CITY      CLEAR     73  65  75 S3        30.12S
NORTON         SUNNY     68  59  73 S6        30.11F
PHILLIPSBURG   CLEAR     75  66  73 CALM      30.11S
SMITH CENTER   CLEAR     70  64  83 S5        30.11S
HAYS           CLEAR     72  63  73 S8        30.12S
RUSSELL        CLEAR     73  69  87 S10       30.10S
CONCORDIA      PTCLDY    70  65  84 S6        30.09S
SALINA         CLEAR     75  69  81 SW3       30.08S
TOPEKA         CLEAR     73  72  96 CALM      30.07F



USA.gov is the U.S. government's official web portal to all federal, state and local government web resources and services.